Williamsport, PA

2:22 PM EDT on March 28, 2017 (GMT -0400)
Williamsport Rgnl

Weather History for KIPT - November, 2013

Change the Weather History Date:

Thursday, November 21, 2013

  Actual Average Record
Temperature  
Mean Temperature 34 °F 40 °F  
Max Temperature 43 °F 47 °F 79 °F (1900)
Min Temperature 25 °F 32 °F 12 °F (1951)
Degree Days  
Heating Degree Days 31 25  
Month to date heating degree days 479 457  
Since 1 July heating degree days 925 1000  
Cooling Degree Days 0 0  
Month to date cooling degree days 0 0  
Year to date cooling degree days 863 702  
Moisture  
Dew Point 23 °F    
Average Humidity 61    
Maximum Humidity 79    
Minimum Humidity 43    
Precipitation  
Precipitation T in 0.14 in 1.62 in (1952)
Month to date precipitation 0.97 2.55  
Year to date precipitation 27.18 37.16  
Snow  
Snow 0.00 in 0.10 in 1.00 in (1978)
Month to date snowfall T 0.9  
Since 1 July snowfall T 1.0  
Since 1 September snowfall T 1.0  
Snow Depth 0.00 in    
Sea Level Pressure  
Sea Level Pressure 30.49 in    
Wind  
Wind Speed 3 mph (East)    
Max Wind Speed 14 mph    
Max Gust Speed 16 mph    
Visibility 10 miles    
Events Rain    
T = Trace of Precipitation, MM = Missing Value Source: NWS Daily Summary

Daily Weather History Graph

Daily Weather History Graph

Search for Another Location

Airport or City:

Trip Planner

Search our weather history database for the weather conditions in past years. The results will help you decide how hot, cold, wet, or windy it might be!

Date:

Astronomy

Nov. 21, 2013 Rise Set
Actual Time 7:03 AM EST 4:43 PM EST
Civil Twilight 6:33 AM EST 5:13 PM EST
Nautical Twilight 5:59 AM EST 5:47 PM EST
Astronomical Twilight 5:26 AM EST 6:20 PM EST
Moon 8:19 PM EST (11/21) 10:07 AM EST (11/21)
Length of Visible Light 10h 40m
Length of Day
9h 40m
Waning Gibbous, 85% of the Moon is Illuminated
Nov 21
Waning Gibbous
Nov 25
Last Quarter
Dec 2
New
Dec 9
First Quarter
Dec 17
Full

Hourly Weather History & Observations

Time (EST) Temp. Windchill Dew Point Humidity Pressure Visibility Wind Dir Wind Speed Gust Speed Precip Events Conditions
12:54 AM 27.0 °F - 16.0 °F 63% 30.56 in 10.0 mi Calm Calm - N/A   Clear
1:54 AM 28.9 °F - 14.0 °F 54% 30.58 in 10.0 mi Calm Calm - N/A   Clear
2:54 AM 30.0 °F 20.0 °F 10.9 °F 45% 30.56 in 10.0 mi ENE 12.7 mph - N/A   Clear
3:54 AM 27.0 °F - 12.9 °F 56% 30.57 in 10.0 mi Calm Calm - N/A   Clear
4:54 AM 27.0 °F - 12.0 °F 53% 30.58 in 10.0 mi Calm Calm - N/A   Clear
5:54 AM 26.1 °F 18.4 °F 12.0 °F 55% 30.56 in 10.0 mi ESE 6.9 mph - N/A   Partly Cloudy
6:54 AM 28.0 °F 24.2 °F 15.1 °F 58% 30.56 in 10.0 mi ESE 3.5 mph - N/A   Partly Cloudy
7:54 AM 30.0 °F 25.2 °F 18.0 °F 61% 30.59 in 10.0 mi West 4.6 mph - N/A   Mostly Cloudy
8:54 AM 33.1 °F - 16.0 °F 50% 30.57 in 10.0 mi Calm Calm - N/A   Scattered Clouds
9:54 AM 35.1 °F 32.2 °F 19.9 °F 54% 30.57 in 10.0 mi South 3.5 mph - N/A   Partly Cloudy
10:54 AM 39.9 °F 36.7 °F 21.0 °F 47% 30.54 in 10.0 mi Variable 4.6 mph - N/A   Overcast
11:01 AM 39.2 °F - 21.2 °F 49% 30.52 in 10.0 mi Calm Calm - N/A   Mostly Cloudy
11:54 AM 41.0 °F 39.0 °F 23.0 °F 49% 30.51 in 10.0 mi Variable 3.5 mph - N/A   Mostly Cloudy
12:01 PM 41.0 °F 38.0 °F 23.0 °F 49% 30.49 in 10.0 mi Variable 4.6 mph 16.1 mph N/A   Mostly Cloudy
12:54 PM 42.1 °F 37.1 °F 25.0 °F 51% 30.49 in 10.0 mi ENE 8.1 mph - N/A   Mostly Cloudy
1:54 PM 43.0 °F 41.3 °F 27.0 °F 53% 30.48 in 10.0 mi Variable 3.5 mph - N/A   Mostly Cloudy
2:43 PM 42.8 °F 38.6 °F 28.4 °F 57% 30.42 in 10.0 mi East 6.9 mph - 0.00 in Rain Light Rain
2:54 PM 43.0 °F 39.5 °F 28.0 °F 56% 30.44 in 10.0 mi ENE 5.8 mph - 0.00 in   Overcast
3:40 PM 42.8 °F 39.3 °F 28.4 °F 57% 30.43 in 10.0 mi ENE 5.8 mph - N/A   Overcast
3:54 PM 43.0 °F - 28.9 °F 58% 30.45 in 10.0 mi Calm Calm - N/A   Overcast
4:54 PM 42.1 °F 39.2 °F 28.9 °F 60% 30.44 in 10.0 mi East 4.6 mph - N/A   Overcast
5:13 PM 42.8 °F 38.6 °F 30.2 °F 61% 30.42 in 10.0 mi NE 6.9 mph - N/A   Overcast
5:54 PM 42.1 °F 40.2 °F 30.0 °F 62% 30.44 in 10.0 mi ENE 3.5 mph - N/A   Mostly Cloudy
6:54 PM 41.0 °F 37.1 °F 30.0 °F 65% 30.43 in 10.0 mi ENE 5.8 mph - 0.00 in   Overcast
7:54 PM 42.1 °F 40.2 °F 30.9 °F 65% 30.42 in 10.0 mi South 3.5 mph - 0.00 in Rain Light Rain
8:54 PM 41.0 °F - 33.1 °F 73% 30.41 in 10.0 mi Calm Calm - 0.00 in   Overcast
9:54 PM 39.9 °F - 33.1 °F 77% 30.40 in 10.0 mi Calm Calm - 0.00 in   Overcast
10:54 PM 41.0 °F 36.4 °F 32.0 °F 70% 30.37 in 10.0 mi East 6.9 mph - N/A   Overcast
11:54 PM 41.0 °F - 32.0 °F 70% 30.36 in 10.0 mi Calm Calm - N/A   Overcast